Location: Dumpton Point
(51.3500°N, 1.4433°E)
Time: 09:40:04
(UTC+00:00)

Explorer 7 - All Passes

Search period start: 30 September 2022 00:00
Search period end: 10 October 2022 00:00
Orbit: 482 x 667 km, 50.3° (Epoch: 29 September)

Date Brightness Start Highest point End Pass type
(mag) Time Alt. Az. Time Alt. Az. Time Alt. Az.
30 Sep - 11:21:51 10° SSW 11:25:45 25° SE 11:29:34 10° E daylight
30 Sep - 13:00:58 10° WSW 13:05:42 61° SSE 13:10:14 10° E daylight
30 Sep - 14:41:20 10° W 14:46:03 79° S 14:50:31 10° E daylight
30 Sep - 16:21:53 10° W 16:26:18 48° SSW 16:30:27 10° SE daylight
30 Sep - 18:03:16 10° W 18:05:54 16° SW 18:08:26 10° S visible
01 Oct - 11:23:44 10° SSW 11:28:01 32° SSE 11:32:12 10° E daylight
01 Oct - 13:03:20 10° WSW 13:08:06 70° SSE 13:12:41 10° E daylight
01 Oct - 14:43:47 10° W 14:48:30 76° S 14:52:57 10° ESE daylight
01 Oct - 16:24:23 10° W 16:28:38 38° SSW 16:32:38 10° SE daylight
01 Oct - 18:06:56 10° WSW 18:08:01 11° SW 18:09:06 10° SSW visible
02 Oct - 09:48:28 10° SSE 09:50:43 13° SE 09:52:58 10° ESE daylight
02 Oct - 11:25:47 10° SW 11:30:19 41° SSE 11:34:44 10° E daylight
02 Oct - 13:05:44 10° WSW 13:10:32 76° S 13:15:08 10° E daylight
02 Oct - 14:46:14 10° W 14:50:54 69° SSW 14:55:20 10° ESE daylight
02 Oct - 16:26:56 10° W 16:30:54 30° SSW 16:34:41 10° SSE daylight
03 Oct - 09:49:34 10° S 09:52:52 18° SE 09:56:09 10° E daylight
03 Oct - 11:27:58 10° SW 11:32:39 51° SSE 11:37:13 10° E daylight
03 Oct - 13:08:09 10° W 13:12:57 80° S 13:17:34 10° E daylight
03 Oct - 14:48:40 10° W 14:53:18 59° SSW 14:57:41 10° ESE daylight
03 Oct - 16:29:35 10° W 16:33:07 22° SW 16:36:31 10° SSE daylight
04 Oct - 09:51:10 10° SSW 09:55:04 25° SE 09:58:57 10° E daylight
04 Oct - 11:30:14 10° WSW 11:35:00 61° SSE 11:39:39 10° E daylight
04 Oct - 13:10:35 10° W 13:15:23 80° S 13:19:59 10° E daylight
04 Oct - 14:51:07 10° W 14:55:39 49° SSW 14:59:58 10° SE daylight
04 Oct - 16:32:26 10° W 16:35:18 17° SW 16:38:04 10° S daylight
05 Oct - 09:53:00 10° SSW 09:57:18 32° SSE 10:01:33 10° E daylight
05 Oct - 11:32:34 10° WSW 11:37:23 70° SSE 11:42:05 10° E daylight
05 Oct - 13:13:00 10° W 13:17:48 76° S 13:22:23 10° ESE daylight
05 Oct - 14:53:35 10° W 14:57:57 39° SSW 15:02:07 10° SE daylight
05 Oct - 16:35:50 10° WSW 16:37:24 12° SW 16:38:56 10° SSW daylight
06 Oct - 08:17:47 10° SSE 08:20:01 13° SE 08:22:14 10° ESE daylight
06 Oct - 09:55:02 10° SW 09:59:34 41° SSE 10:04:04 10° E daylight
06 Oct - 11:34:57 10° WSW 11:39:47 76° S 11:44:30 10° E daylight
06 Oct - 13:15:25 10° W 13:20:12 70° SSW 13:24:46 10° ESE daylight
06 Oct - 14:56:06 10° W 15:00:13 31° SSW 15:04:09 10° SSE daylight
07 Oct - 08:18:51 10° S 08:22:07 18° SE 08:25:25 10° E daylight
07 Oct - 09:57:11 10° SW 10:01:52 51° SSE 10:06:31 10° E daylight
07 Oct - 11:37:20 10° W 11:42:12 80° S 11:46:54 10° E daylight
07 Oct - 13:17:50 10° W 13:22:34 61° SSW 13:27:05 10° ESE daylight
07 Oct - 14:58:42 10° W 15:02:25 24° SW 15:05:59 10° SSE daylight
08 Oct - 08:20:24 10° SSW 08:24:17 24° SE 08:28:10 10° E daylight
08 Oct - 09:59:26 10° WSW 10:04:13 61° SSE 10:08:56 10° E daylight
08 Oct - 11:39:44 10° W 11:44:36 80° S 11:49:19 10° E daylight
08 Oct - 13:20:15 10° W 13:24:54 50° SSW 13:29:20 10° SE daylight
08 Oct - 15:01:29 10° W 15:04:34 17° SW 15:07:33 10° S daylight
09 Oct - 08:22:13 10° SSW 08:26:29 32° SSE 08:30:46 10° E daylight
09 Oct - 10:01:44 10° WSW 10:06:34 69° SSE 10:11:20 10° E daylight
09 Oct - 11:42:08 10° W 11:46:59 77° S 11:51:41 10° ESE daylight
09 Oct - 13:22:41 10° W 13:27:11 41° SSW 13:31:29 10° SE daylight
09 Oct - 15:04:43 10° WSW 15:06:39 12° SW 15:08:33 10° SSW daylight
